Time,TemperatureF,DewpointF,PressureIn,WindDirection,WindDirectionDegrees,WindSpeedMPH,WindSpeedGustMPH,Humidity,HourlyPrecipIn,Conditions,Clouds,dailyrainin,SoftwareType,DateUTC
2013-01-25 00:01:00,0.0,-6.0,30.23,NNW,337,0.0,-999.0,84,0.00,,,0.00,Rainwise IP-100,2013-01-25 05:01:00,
2013-01-25 00:06:00,0.0,-6.0,30.23,WNW,292,7.0,-999.0,84,0.00,,,0.00,Rainwise IP-100,2013-01-25 05:06:00,
2013-01-25 00:11:00,0.0,-6.0,30.23,WNW,292,7.0,-999.0,84,0.00,,,0.00,Rainwise IP-100,2013-01-25 05:11:00,
2013-01-25 00:16:00,0.0,-6.0,30.23,WNW,292,0.0,-999.0,84,0.00,,,0.00,Rainwise IP-100,2013-01-25 05:16:00,
2013-01-25 00:21:00,0.0,-6.0,30.23,NW,315,0.0,-999.0,84,0.00,,,0.00,Rainwise IP-100,2013-01-25 05:21:00,
2013-01-25 00:23:00,0.0,-6.0,30.23,WSW,247,6.0,-999.0,84,0.00,,,0.00,Rainwise IP-100,2013-01-25 05:23:00,
2013-01-25 00:28:00,0.0,-6.0,30.23,WNW,292,2.0,-999.0,84,0.00,,,0.00,Rainwise IP-100,2013-01-25 05:28:00,
2013-01-25 00:30:00,0.0,-6.0,30.23,WNW,292,6.0,-999.0,84,0.00,,,0.00,Rainwise IP-100,2013-01-25 05:30:00,
2013-01-25 00:35:00,0.0,-6.0,30.22,NW,315,9.0,-999.0,84,0.00,,,0.00,Rainwise IP-100,2013-01-25 05:35:00,
2013-01-25 00:40:00,0.0,-6.0,30.23,WNW,292,0.0,-999.0,84,0.00,,,0.00,Rainwise IP-100,2013-01-25 05:40:00,
2013-01-25 00:47:00,0.0,-6.0,30.23,NW,315,0.0,-999.0,84,0.00,,,0.00,Rainwise IP-100,2013-01-25 05:47:00,
2013-01-25 00:52:00,0.0,-6.0,30.23,West,270,4.0,-999.0,84,0.00,,,0.00,Rainwise IP-100,2013-01-25 05:52:00,
2013-01-25 00:57:00,0.0,-6.0,30.23,WNW,292,3.0,-999.0,84,0.00,,,0.00,Rainwise IP-100,2013-01-25 05:57:00,
2013-01-25 01:02:00,0.0,-6.0,30.23,West,270,0.0,-999.0,84,0.00,,,0.00,Rainwise IP-100,2013-01-25 06:02:00,
2013-01-25 01:07:00,0.0,-6.0,30.23,WNW,292,3.0,-999.0,84,0.00,,,0.00,Rainwise IP-100,2013-01-25 06:07:00,
2013-01-25 01:12:00,0.0,-6.0,30.23,WNW,292,0.0,-999.0,84,0.00,,,0.00,Rainwise IP-100,2013-01-25 06:12:00,
2013-01-25 01:17:00,0.0,-6.0,30.23,NNW,337,4.0,-999.0,84,0.00,,,0.00,Rainwise IP-100,2013-01-25 06:17:00,
2013-01-25 01:22:00,0.0,-6.0,30.23,WNW,292,0.0,-999.0,84,0.00,,,0.00,Rainwise IP-100,2013-01-25 06:22:00,
2013-01-25 01:27:00,0.0,-6.0,30.22,NW,315,2.0,-999.0,84,0.00,,,0.00,Rainwise IP-100,2013-01-25 06:27:00,
2013-01-25 01:32:00,0.0,-6.0,30.23,WNW,292,4.0,-999.0,84,0.00,,,0.00,Rainwise IP-100,2013-01-25 06:32:00,
2013-01-25 01:37:00,0.0,-6.0,30.23,NW,315,7.0,-999.0,84,0.00,,,0.00,Rainwise IP-100,2013-01-25 06:37:00,
2013-01-25 01:42:00,0.0,-6.0,30.23,West,270,0.0,-999.0,84,0.00,,,0.00,Rainwise IP-100,2013-01-25 06:42:00,
2013-01-25 01:47:00,0.0,-6.0,30.23,NW,315,7.0,-999.0,84,0.00,,,0.00,Rainwise IP-100,2013-01-25 06:47:00,
2013-01-25 01:52:00,0.0,-6.0,30.23,NW,315,5.0,-999.0,84,0.00,,,0.00,Rainwise IP-100,2013-01-25 06:52:00,
2013-01-25 01:57:00,0.0,-6.0,30.23,SSW,202,0.0,-999.0,84,0.00,,,0.00,Rainwise IP-100,2013-01-25 06:57:00,
2013-01-25 02:02:00,0.0,-6.0,30.23,WNW,292,5.0,-999.0,84,0.00,,,0.00,Rainwise IP-100,2013-01-25 07:02:00,
2013-01-25 02:07:00,0.0,-6.0,30.24,WNW,292,1.0,-999.0,84,0.00,,,0.00,Rainwise IP-100,2013-01-25 07:07:00,
2013-01-25 02:12:00,0.0,-6.0,30.22,NW,315,0.0,-999.0,84,0.00,,,0.00,Rainwise IP-100,2013-01-25 07:12:00,
2013-01-25 02:17:00,1.0,0.0,30.22,WNW,292,0.0,-999.0,83,0.00,,,0.00,Rainwise IP-100,2013-01-25 07:17:00,
2013-01-25 02:22:00,1.0,0.0,30.23,WNW,292,6.0,-999.0,83,0.00,,,0.00,Rainwise IP-100,2013-01-25 07:22:00,
2013-01-25 02:27:00,1.0,0.0,30.23,WNW,292,4.0,-999.0,83,0.00,,,0.00,Rainwise IP-100,2013-01-25 07:27:00,
2013-01-25 02:32:00,1.0,0.0,30.23,WNW,292,0.0,-999.0,83,0.00,,,0.00,Rainwise IP-100,2013-01-25 07:32:00,
2013-01-25 02:37:00,1.0,0.0,30.23,WNW,292,9.0,-999.0,83,0.00,,,0.00,Rainwise IP-100,2013-01-25 07:37:00,
2013-01-25 02:43:00,1.0,0.0,30.24,WNW,292,0.0,-999.0,83,0.00,,,0.00,Rainwise IP-100,2013-01-25 07:43:00,
2013-01-25 02:48:00,1.0,0.0,30.23,WSW,247,2.0,-999.0,83,0.00,,,0.00,Rainwise IP-100,2013-01-25 07:48:00,
2013-01-25 02:53:00,1.0,0.0,30.24,NW,315,0.0,-999.0,83,0.00,,,0.00,Rainwise IP-100,2013-01-25 07:53:00,
2013-01-25 02:58:00,1.0,0.0,30.24,NNW,337,0.0,-999.0,83,0.00,,,0.00,Rainwise IP-100,2013-01-25 07:58:00,
2013-01-25 03:03:00,0.0,-6.0,30.24,NW,315,6.0,-999.0,84,0.00,,,0.00,Rainwise IP-100,2013-01-25 08:03:00,
2013-01-25 03:09:00,0.0,-6.0,30.24,NNW,337,4.0,-999.0,84,0.00,,,0.00,Rainwise IP-100,2013-01-25 08:09:00,
2013-01-25 03:14:00,0.0,-6.0,30.24,NW,315,0.0,-999.0,84,0.00,,,0.00,Rainwise IP-100,2013-01-25 08:14:00,
2013-01-25 03:19:00,1.0,0.0,30.25,NW,315,0.0,-999.0,83,0.00,,,0.00,Rainwise IP-100,2013-01-25 08:19:00,
2013-01-25 03:26:00,0.0,-6.0,30.24,NW,315,0.0,-999.0,84,0.00,,,0.00,Rainwise IP-100,2013-01-25 08:26:00,
2013-01-25 03:30:00,1.0,0.0,30.24,WNW,292,1.0,-999.0,83,0.00,,,0.00,Rainwise IP-100,2013-01-25 08:30:00,
2013-01-25 03:36:00,1.0,0.0,30.24,WNW,292,6.0,-999.0,83,0.00,,,0.00,Rainwise IP-100,2013-01-25 08:36:00,
2013-01-25 03:41:00,1.0,0.0,30.25,NW,315,1.0,-999.0,83,0.00,,,0.00,Rainwise IP-100,2013-01-25 08:41:00,
2013-01-25 03:46:00,1.0,0.0,30.25,WNW,292,6.0,-999.0,83,0.00,,,0.00,Rainwise IP-100,2013-01-25 08:46:00,
2013-01-25 03:52:00,1.0,0.0,30.25,WNW,292,5.0,-999.0,83,0.00,,,0.00,Rainwise IP-100,2013-01-25 08:52:00,
2013-01-25 03:58:00,1.0,0.0,30.26,WNW,292,5.0,-999.0,83,0.00,,,0.00,Rainwise IP-100,2013-01-25 08:58:00,
2013-01-25 04:03:00,1.0,0.0,30.26,WNW,292,7.0,-999.0,83,0.00,,,0.00,Rainwise IP-100,2013-01-25 09:03:00,
2013-01-25 04:08:00,1.0,0.0,30.25,WNW,292,6.0,-999.0,83,0.00,,,0.00,Rainwise IP-100,2013-01-25 09:08:00,
2013-01-25 04:14:00,1.0,0.0,30.25,NW,315,8.0,-999.0,83,0.00,,,0.00,Rainwise IP-100,2013-01-25 09:14:00,
2013-01-25 04:19:00,1.0,0.0,30.26,NW,315,8.0,-999.0,83,0.00,,,0.00,Rainwise IP-100,2013-01-25 09:19:00,
2013-01-25 04:24:00,1.0,0.0,30.26,WNW,292,9.0,-999.0,83,0.00,,,0.00,Rainwise IP-100,2013-01-25 09:24:00,
2013-01-25 04:29:00,1.0,0.0,30.26,WNW,292,6.0,-999.0,83,0.00,,,0.00,Rainwise IP-100,2013-01-25 09:29:00,
2013-01-25 04:34:00,1.0,0.0,30.27,WNW,292,5.0,-999.0,83,0.00,,,0.00,Rainwise IP-100,2013-01-25 09:34:00,
2013-01-25 04:39:00,1.0,0.0,30.27,WNW,292,7.0,-999.0,83,0.00,,,0.00,Rainwise IP-100,2013-01-25 09:39:00,
2013-01-25 04:44:00,1.0,0.0,30.27,WNW,292,3.0,-999.0,83,0.00,,,0.00,Rainwise IP-100,2013-01-25 09:44:00,
2013-01-25 04:49:00,1.0,0.0,30.27,WNW,292,7.0,-999.0,83,0.00,,,0.00,Rainwise IP-100,2013-01-25 09:49:00,
2013-01-25 04:54:00,1.0,0.0,30.26,WNW,292,3.0,-999.0,83,0.00,,,0.00,Rainwise IP-100,2013-01-25 09:54:00,
2013-01-25 04:59:00,1.0,0.0,30.26,WNW,292,4.0,-999.0,83,0.00,,,0.00,Rainwise IP-100,2013-01-25 09:59:00,
2013-01-25 05:04:00,1.0,0.0,30.25,WNW,292,5.0,-999.0,83,0.00,,,0.00,Rainwise IP-100,2013-01-25 10:04:00,
2013-01-25 05:09:00,1.0,0.0,30.26,WNW,292,3.0,-999.0,83,0.00,,,0.00,Rainwise IP-100,2013-01-25 10:09:00,
2013-01-25 05:14:00,1.0,0.0,30.26,WNW,292,1.0,-999.0,83,0.00,,,0.00,Rainwise IP-100,2013-01-25 10:14:00,
2013-01-25 05:20:00,1.0,0.0,30.26,WNW,292,3.0,-999.0,83,0.00,,,0.00,Rainwise IP-100,2013-01-25 10:20:00,
2013-01-25 05:25:00,1.0,0.0,30.26,WNW,292,5.0,-999.0,83,0.00,,,0.00,Rainwise IP-100,2013-01-25 10:25:00,
2013-01-25 05:30:00,1.0,0.0,30.27,WNW,292,2.0,-999.0,83,0.00,,,0.00,Rainwise IP-100,2013-01-25 10:30:00,
2013-01-25 05:35:00,1.0,0.0,30.27,WNW,292,0.0,-999.0,83,0.00,,,0.00,Rainwise IP-100,2013-01-25 10:35:00,
2013-01-25 05:41:00,1.0,0.0,30.28,WNW,292,0.0,-999.0,83,0.00,,,0.00,Rainwise IP-100,2013-01-25 10:41:00,
2013-01-25 05:46:00,1.0,0.0,30.27,WNW,292,3.0,-999.0,83,0.00,,,0.00,Rainwise IP-100,2013-01-25 10:46:00,
2013-01-25 05:51:00,1.0,0.0,30.28,WNW,292,0.0,-999.0,83,0.00,,,0.00,Rainwise IP-100,2013-01-25 10:51:00,
2013-01-25 05:56:00,1.0,0.0,30.27,WNW,292,5.0,-999.0,83,0.00,,,0.00,Rainwise IP-100,2013-01-25 10:56:00,
2013-01-25 06:01:00,2.0,0.0,30.27,WNW,292,8.0,-999.0,83,0.00,,,0.00,Rainwise IP-100,2013-01-25 11:01:00,
2013-01-25 06:06:00,2.0,0.0,30.27,NW,315,6.0,-999.0,83,0.00,,,0.00,Rainwise IP-100,2013-01-25 11:06:00,
2013-01-25 06:11:00,2.0,0.0,30.27,WNW,292,1.0,-999.0,83,0.00,,,0.00,Rainwise IP-100,2013-01-25 11:11:00,
2013-01-25 06:16:00,2.0,0.0,30.27,WNW,292,7.0,-999.0,83,0.00,,,0.00,Rainwise IP-100,2013-01-25 11:16:00,
2013-01-25 06:21:00,2.0,0.0,30.27,WNW,292,3.0,-999.0,83,0.00,,,0.00,Rainwise IP-100,2013-01-25 11:21:00,
2013-01-25 06:26:00,2.0,0.0,30.27,SSW,202,1.0,-999.0,83,0.00,,,0.00,Rainwise IP-100,2013-01-25 11:26:00,
2013-01-25 06:31:00,2.0,0.0,30.28,WNW,292,0.0,-999.0,83,0.00,,,0.00,Rainwise IP-100,2013-01-25 11:31:00,
2013-01-25 06:36:00,2.0,0.0,30.28,WNW,292,0.0,-999.0,83,0.00,,,0.00,Rainwise IP-100,2013-01-25 11:36:00,
2013-01-25 06:41:00,2.0,0.0,30.28,SSE,157,0.0,-999.0,83,0.00,,,0.00,Rainwise IP-100,2013-01-25 11:41:00,
2013-01-25 06:46:00,1.0,0.0,30.28,West,270,0.0,-999.0,83,0.00,,,0.00,Rainwise IP-100,2013-01-25 11:46:00,
2013-01-25 06:51:00,1.0,0.0,30.28,NW,315,5.0,-999.0,83,0.00,,,0.00,Rainwise IP-100,2013-01-25 11:51:00,
2013-01-25 06:56:00,1.0,0.0,30.28,NW,315,5.0,-999.0,83,0.00,,,0.00,Rainwise IP-100,2013-01-25 11:56:00,
2013-01-25 07:01:00,1.0,0.0,30.28,NW,315,9.0,-999.0,83,0.00,,,0.00,Rainwise IP-100,2013-01-25 12:01:00,
2013-01-25 07:06:00,2.0,0.0,30.28,WNW,292,4.0,-999.0,83,0.00,,,0.00,Rainwise IP-100,2013-01-25 12:06:00,
2013-01-25 07:11:00,2.0,0.0,30.28,WNW,292,8.0,-999.0,83,0.00,,,0.00,Rainwise IP-100,2013-01-25 12:11:00,
2013-01-25 07:16:00,2.0,0.0,30.29,NW,315,4.0,-999.0,83,0.00,,,0.00,Rainwise IP-100,2013-01-25 12:16:00,
2013-01-25 07:22:00,3.0,0.0,30.28,NW,315,0.0,-999.0,83,0.00,,,0.00,Rainwise IP-100,2013-01-25 12:22:00,
2013-01-25 07:27:00,3.0,0.0,30.29,NNW,337,1.0,-999.0,83,0.00,,,0.00,Rainwise IP-100,2013-01-25 12:27:00,
2013-01-25 07:32:00,3.0,0.0,30.30,WNW,292,0.0,-999.0,83,0.00,,,0.00,Rainwise IP-100,2013-01-25 12:32:00,
2013-01-25 07:37:00,4.0,0.0,30.30,WNW,292,0.0,-999.0,83,0.00,,,0.00,Rainwise IP-100,2013-01-25 12:37:00,
2013-01-25 07:42:00,4.0,0.0,30.30,WSW,247,0.0,-999.0,83,0.00,,,0.00,Rainwise IP-100,2013-01-25 12:42:00,
2013-01-25 07:47:00,5.0,4.0,30.30,WNW,292,1.0,-999.0,83,0.00,,,0.00,Rainwise IP-100,2013-01-25 12:47:00,
2013-01-25 07:52:00,5.0,4.0,30.31,NNW,337,0.0,-999.0,83,0.00,,,0.00,Rainwise IP-100,2013-01-25 12:52:00,
2013-01-25 07:57:00,7.0,4.0,30.31,WNW,292,9.0,-999.0,82,0.00,,,0.00,Rainwise IP-100,2013-01-25 12:57:00,
2013-01-25 08:02:00,7.0,4.0,30.31,NW,315,0.0,-999.0,82,0.00,,,0.00,Rainwise IP-100,2013-01-25 13:02:00,
2013-01-25 08:08:00,7.0,4.0,30.31,WNW,292,3.0,-999.0,82,0.00,,,0.00,Rainwise IP-100,2013-01-25 13:08:00,
2013-01-25 08:13:00,8.0,4.0,30.31,WNW,292,0.0,-999.0,82,0.00,,,0.00,Rainwise IP-100,2013-01-25 13:13:00,
2013-01-25 08:18:00,8.0,4.0,30.31,WNW,292,1.0,-999.0,82,0.00,,,0.00,Rainwise IP-100,2013-01-25 13:18:00,
2013-01-25 08:23:00,8.0,4.0,30.31,WSW,247,0.0,-999.0,82,0.00,,,0.00,Rainwise IP-100,2013-01-25 13:23:00,
2013-01-25 08:28:00,10.0,8.0,30.32,West,270,0.0,-999.0,81,0.00,,,0.00,Rainwise IP-100,2013-01-25 13:28:00,
2013-01-25 08:33:00,9.0,8.0,30.32,WNW,292,4.0,-999.0,82,0.00,,,0.00,Rainwise IP-100,2013-01-25 13:33:00,
2013-01-25 08:38:00,8.0,4.0,30.33,NNW,337,10.0,-999.0,82,0.00,,,0.00,Rainwise IP-100,2013-01-25 13:38:00,
2013-01-25 08:43:00,9.0,8.0,30.33,NNW,337,2.0,-999.0,82,0.00,,,0.00,Rainwise IP-100,2013-01-25 13:43:00,
2013-01-25 08:48:00,8.0,4.0,30.33,WNW,292,2.0,-999.0,82,0.00,,,0.00,Rainwise IP-100,2013-01-25 13:48:00,
2013-01-25 08:53:00,8.0,4.0,30.33,NW,315,1.0,-999.0,82,0.00,,,0.00,Rainwise IP-100,2013-01-25 13:53:00,
2013-01-25 08:58:00,9.0,8.0,30.33,WNW,292,5.0,-999.0,82,0.00,,,0.00,Rainwise IP-100,2013-01-25 13:58:00,
2013-01-25 09:04:00,8.0,4.0,30.33,WNW,292,2.0,-999.0,82,0.00,,,0.00,Rainwise IP-100,2013-01-25 14:04:00,
2013-01-25 09:09:00,8.0,4.0,30.33,WNW,292,1.0,-999.0,82,0.00,,,0.00,Rainwise IP-100,2013-01-25 14:09:00,
2013-01-25 09:14:00,9.0,8.0,30.33,NW,315,6.0,-999.0,82,0.00,,,0.00,Rainwise IP-100,2013-01-25 14:14:00,
2013-01-25 09:19:00,10.0,8.0,30.33,SW,225,6.0,-999.0,81,0.00,,,0.00,Rainwise IP-100,2013-01-25 14:19:00,
2013-01-25 09:24:00,9.0,8.0,30.33,WNW,292,2.0,-999.0,82,0.00,,,0.00,Rainwise IP-100,2013-01-25 14:24:00,
2013-01-25 09:29:00,11.0,8.0,30.33,NW,315,5.0,-999.0,81,0.00,,,0.00,Rainwise IP-100,2013-01-25 14:29:00,
2013-01-25 09:34:00,9.0,8.0,30.33,WNW,292,9.0,-999.0,82,0.00,,,0.00,Rainwise IP-100,2013-01-25 14:34:00,
2013-01-25 09:39:00,9.0,8.0,30.34,WNW,292,1.0,-999.0,82,0.00,,,0.00,Rainwise IP-100,2013-01-25 14:39:00,
2013-01-25 09:44:00,10.0,8.0,30.34,WNW,292,0.0,-999.0,81,0.00,,,0.00,Rainwise IP-100,2013-01-25 14:44:00,
2013-01-25 09:49:00,10.0,8.0,30.33,WNW,292,5.0,-999.0,81,0.00,,,0.00,Rainwise IP-100,2013-01-25 14:49:00,
2013-01-25 09:54:00,11.0,8.0,30.32,NW,315,4.0,-999.0,81,0.00,,,0.00,Rainwise IP-100,2013-01-25 14:54:00,
2013-01-25 09:59:00,11.0,8.0,30.32,NNW,337,12.0,-999.0,81,0.00,,,0.00,Rainwise IP-100,2013-01-25 14:59:00,
2013-01-25 10:04:00,11.0,8.0,30.32,WNW,292,7.0,-999.0,81,0.00,,,0.00,Rainwise IP-100,2013-01-25 15:04:00,
2013-01-25 10:09:00,10.0,8.0,30.32,WNW,292,7.0,-999.0,81,0.00,,,0.00,Rainwise IP-100,2013-01-25 15:09:00,
2013-01-25 10:14:00,10.0,8.0,30.33,NW,315,7.0,-999.0,81,0.00,,,0.00,Rainwise IP-100,2013-01-25 15:14:00,
2013-01-25 10:20:00,10.0,8.0,30.33,WNW,292,6.0,-999.0,81,0.00,,,0.00,Rainwise IP-100,2013-01-25 15:20:00,
2013-01-25 10:25:00,10.0,8.0,30.33,WNW,292,6.0,-999.0,81,0.00,,,0.00,Rainwise IP-100,2013-01-25 15:25:00,
2013-01-25 10:31:00,11.0,8.0,30.33,NW,315,13.0,-999.0,81,0.00,,,0.00,Rainwise IP-100,2013-01-25 15:31:00,
2013-01-25 10:36:00,11.0,8.0,30.32,NW,315,8.0,-999.0,81,0.00,,,0.00,Rainwise IP-100,2013-01-25 15:36:00,
2013-01-25 10:41:00,11.0,8.0,30.32,WNW,292,6.0,-999.0,81,0.00,,,0.00,Rainwise IP-100,2013-01-25 15:41:00,
2013-01-25 10:46:00,11.0,8.0,30.32,WNW,292,7.0,-999.0,81,0.00,,,0.00,Rainwise IP-100,2013-01-25 15:46:00,
2013-01-25 10:51:00,11.0,8.0,30.32,WNW,292,5.0,-999.0,81,0.00,,,0.00,Rainwise IP-100,2013-01-25 15:51:00,
2013-01-25 10:56:00,11.0,8.0,30.32,WNW,292,5.0,-999.0,81,0.00,,,0.00,Rainwise IP-100,2013-01-25 15:56:00,
2013-01-25 11:01:00,11.0,8.0,30.31,NNW,337,1.0,-999.0,81,0.00,,,0.00,Rainwise IP-100,2013-01-25 16:01:00,
2013-01-25 11:06:00,12.0,8.0,30.31,NW,315,11.0,-999.0,80,0.00,,,0.00,Rainwise IP-100,2013-01-25 16:06:00,
2013-01-25 11:11:00,12.0,8.0,30.30,WNW,292,5.0,-999.0,80,0.00,,,0.00,Rainwise IP-100,2013-01-25 16:11:00,
2013-01-25 11:16:00,11.0,8.0,30.30,WNW,292,3.0,-999.0,81,0.00,,,0.00,Rainwise IP-100,2013-01-25 16:16:00,
2013-01-25 11:21:00,12.0,8.0,30.30,WNW,292,2.0,-999.0,80,0.00,,,0.00,Rainwise IP-100,2013-01-25 16:21:00,
2013-01-25 11:26:00,12.0,8.0,30.30,NNW,337,7.0,-999.0,80,0.00,,,0.00,Rainwise IP-100,2013-01-25 16:26:00,
2013-01-25 11:32:00,12.0,8.0,30.29,NW,315,6.0,-999.0,80,0.00,,,0.00,Rainwise IP-100,2013-01-25 16:32:00,
2013-01-25 11:37:00,13.0,8.0,30.29,WSW,247,7.0,-999.0,80,0.00,,,0.00,Rainwise IP-100,2013-01-25 16:37:00,
2013-01-25 11:42:00,13.0,8.0,30.29,West,270,6.0,-999.0,80,0.00,,,0.00,Rainwise IP-100,2013-01-25 16:42:00,
2013-01-25 11:47:00,13.0,8.0,30.29,NW,315,8.0,-999.0,80,0.00,,,0.00,Rainwise IP-100,2013-01-25 16:47:00,
2013-01-25 11:52:00,13.0,8.0,30.29,NW,315,6.0,-999.0,80,0.00,,,0.00,Rainwise IP-100,2013-01-25 16:52:00,
2013-01-25 11:57:00,13.0,8.0,30.29,WNW,292,3.0,-999.0,80,0.00,,,0.00,Rainwise IP-100,2013-01-25 16:57:00,
2013-01-25 12:02:00,13.0,8.0,30.28,NW,315,7.0,-999.0,80,0.00,,,0.00,Rainwise IP-100,2013-01-25 17:02:00,
2013-01-25 12:07:00,13.0,8.0,30.28,WNW,292,2.0,-999.0,80,0.00,,,0.00,Rainwise IP-100,2013-01-25 17:07:00,
2013-01-25 12:12:00,13.0,8.0,30.28,West,270,3.0,-999.0,80,0.00,,,0.00,Rainwise IP-100,2013-01-25 17:12:00,
2013-01-25 12:17:00,13.0,8.0,30.28,WNW,292,3.0,-999.0,80,0.00,,,0.00,Rainwise IP-100,2013-01-25 17:17:00,
2013-01-25 12:22:00,13.0,8.0,30.28,West,270,0.0,-999.0,80,0.00,,,0.00,Rainwise IP-100,2013-01-25 17:22:00,
2013-01-25 12:27:00,13.0,8.0,30.28,WNW,292,5.0,-999.0,80,0.00,,,0.00,Rainwise IP-100,2013-01-25 17:27:00,
2013-01-25 12:32:00,13.0,8.0,30.28,WNW,292,7.0,-999.0,80,0.00,,,0.00,Rainwise IP-100,2013-01-25 17:32:00,
2013-01-25 12:37:00,13.0,8.0,30.28,WNW,292,0.0,-999.0,80,0.00,,,0.00,Rainwise IP-100,2013-01-25 17:37:00,
2013-01-25 12:42:00,13.0,8.0,30.27,NW,315,8.0,-999.0,80,0.00,,,0.00,Rainwise IP-100,2013-01-25 17:42:00,
2013-01-25 12:47:00,13.0,8.0,30.28,NW,315,2.0,-999.0,80,0.00,,,0.00,Rainwise IP-100,2013-01-25 17:47:00,
2013-01-25 12:52:00,14.0,8.0,30.27,NW,315,9.0,-999.0,79,0.00,,,0.00,Rainwise IP-100,2013-01-25 17:52:00,
2013-01-25 12:57:00,14.0,8.0,30.27,WNW,292,4.0,-999.0,79,0.00,,,0.00,Rainwise IP-100,2013-01-25 17:57:00,
2013-01-25 13:02:00,14.0,8.0,30.27,WNW,292,13.0,-999.0,79,0.00,,,0.00,Rainwise IP-100,2013-01-25 18:02:00,
2013-01-25 13:07:00,14.0,8.0,30.27,WNW,292,1.0,-999.0,79,0.00,,,0.00,Rainwise IP-100,2013-01-25 18:07:00,
2013-01-25 13:12:00,14.0,8.0,30.27,WNW,292,7.0,-999.0,79,0.00,,,0.00,Rainwise IP-100,2013-01-25 18:12:00,
2013-01-25 13:17:00,14.0,8.0,30.27,WNW,292,5.0,-999.0,79,0.00,,,0.00,Rainwise IP-100,2013-01-25 18:17:00,
2013-01-25 13:23:00,15.0,11.0,30.27,NW,315,15.0,-999.0,79,0.00,,,0.00,Rainwise IP-100,2013-01-25 18:23:00,
2013-01-25 13:28:00,15.0,11.0,30.26,NNW,337,14.0,-999.0,79,0.00,,,0.00,Rainwise IP-100,2013-01-25 18:28:00,
2013-01-25 13:33:00,15.0,11.0,30.27,WNW,292,5.0,-999.0,79,0.00,,,0.00,Rainwise IP-100,2013-01-25 18:33:00,
2013-01-25 13:38:00,15.0,11.0,30.26,WNW,292,6.0,-999.0,79,0.00,,,0.00,Rainwise IP-100,2013-01-25 18:38:00,
2013-01-25 13:43:00,15.0,11.0,30.27,NNW,337,14.0,-999.0,79,0.00,,,0.00,Rainwise IP-100,2013-01-25 18:43:00,
2013-01-25 13:48:00,15.0,11.0,30.27,NW,315,3.0,-999.0,79,0.00,,,0.00,Rainwise IP-100,2013-01-25 18:48:00,
2013-01-25 13:53:00,16.0,11.0,30.26,NW,315,6.0,-999.0,78,0.00,,,0.00,Rainwise IP-100,2013-01-25 18:53:00,
2013-01-25 13:58:00,16.0,11.0,30.26,NW,315,10.0,-999.0,78,0.00,,,0.00,Rainwise IP-100,2013-01-25 18:58:00,
2013-01-25 14:03:00,16.0,11.0,30.26,NW,315,6.0,-999.0,78,0.00,,,0.00,Rainwise IP-100,2013-01-25 19:03:00,
2013-01-25 14:08:00,16.0,11.0,30.26,NNW,337,10.0,-999.0,78,0.00,,,0.00,Rainwise IP-100,2013-01-25 19:08:00,
2013-01-25 14:13:00,16.0,11.0,30.26,NW,315,10.0,-999.0,78,0.00,,,0.00,Rainwise IP-100,2013-01-25 19:13:00,
2013-01-25 14:18:00,16.0,11.0,30.26,NW,315,10.0,-999.0,78,0.00,,,0.00,Rainwise IP-100,2013-01-25 19:18:00,
2013-01-25 14:23:00,16.0,11.0,30.26,WNW,292,13.0,-999.0,78,0.00,,,0.00,Rainwise IP-100,2013-01-25 19:23:00,
2013-01-25 14:28:00,16.0,11.0,30.26,NNW,337,7.0,-999.0,78,0.00,,,0.00,Rainwise IP-100,2013-01-25 19:28:00,
2013-01-25 14:34:00,16.0,11.0,30.26,NW,315,8.0,-999.0,78,0.00,,,0.00,Rainwise IP-100,2013-01-25 19:34:00,
2013-01-25 14:39:00,16.0,11.0,30.26,NW,315,6.0,-999.0,78,0.00,,,0.00,Rainwise IP-100,2013-01-25 19:39:00,
2013-01-25 14:44:00,16.0,11.0,30.26,WNW,292,4.0,-999.0,78,0.00,,,0.00,Rainwise IP-100,2013-01-25 19:44:00,
2013-01-25 14:49:00,16.0,11.0,30.26,WNW,292,2.0,7.0,78,0.00,,,0.00,Rainwise IP-100,2013-01-25 19:49:00,
2013-01-25 14:55:00,16.0,11.0,30.26,NNW,337,1.0,13.0,78,0.00,,,0.00,Rainwise IP-100,2013-01-25 19:55:00,
2013-01-25 15:00:00,16.0,11.0,30.26,WNW,292,1.0,10.0,78,0.00,,,0.00,Rainwise IP-100,2013-01-25 20:00:00,
2013-01-25 15:05:00,16.0,11.0,30.26,NW,315,7.0,13.0,78,0.00,,,0.00,Rainwise IP-100,2013-01-25 20:05:00,
2013-01-25 15:10:00,17.0,14.0,30.27,WNW,292,5.0,11.0,78,0.00,,,0.00,Rainwise IP-100,2013-01-25 20:10:00,
2013-01-25 15:15:00,16.0,11.0,30.27,NW,315,6.0,10.0,78,0.00,,,0.00,Rainwise IP-100,2013-01-25 20:15:00,
2013-01-25 15:20:00,16.0,11.0,30.27,WNW,292,6.0,11.0,78,0.00,,,0.00,Rainwise IP-100,2013-01-25 20:20:00,
2013-01-25 15:25:00,16.0,11.0,30.28,NW,315,4.0,9.0,78,0.00,,,0.00,Rainwise IP-100,2013-01-25 20:25:00,
2013-01-25 15:30:00,16.0,11.0,30.28,WNW,292,0.0,12.0,78,0.00,,,0.00,Rainwise IP-100,2013-01-25 20:30:00,
2013-01-25 15:35:00,16.0,11.0,30.28,WNW,292,2.0,11.0,78,0.00,,,0.00,Rainwise IP-100,2013-01-25 20:35:00,
2013-01-25 15:40:00,16.0,11.0,30.28,WNW,292,6.0,9.0,78,0.00,,,0.00,Rainwise IP-100,2013-01-25 20:40:00,
2013-01-25 15:45:00,16.0,11.0,30.28,NNW,337,6.0,10.0,78,0.00,,,0.00,Rainwise IP-100,2013-01-25 20:45:00,
2013-01-25 15:50:00,16.0,11.0,30.27,NNW,337,7.0,13.0,78,0.00,,,0.00,Rainwise IP-100,2013-01-25 20:50:00,
2013-01-25 15:55:00,16.0,11.0,30.28,NNW,337,5.0,8.0,78,0.00,,,0.00,Rainwise IP-100,2013-01-25 20:55:00,
2013-01-25 16:00:00,16.0,11.0,30.28,NNW,337,4.0,7.0,78,0.00,,,0.00,Rainwise IP-100,2013-01-25 21:00:00,
2013-01-25 16:05:00,16.0,11.0,30.28,WNW,292,0.0,7.0,78,0.00,,,0.00,Rainwise IP-100,2013-01-25 21:05:00,
2013-01-25 16:10:00,15.0,11.0,30.28,WNW,292,0.0,8.0,79,0.00,,,0.00,Rainwise IP-100,2013-01-25 21:10:00,
2013-01-25 16:15:00,15.0,11.0,30.28,WNW,292,2.0,8.0,79,0.00,,,0.00,Rainwise IP-100,2013-01-25 21:15:00,
2013-01-25 16:21:00,15.0,11.0,30.28,WNW,292,0.0,5.0,79,0.00,,,0.00,Rainwise IP-100,2013-01-25 21:21:00,
2013-01-25 16:26:00,15.0,11.0,30.28,NNW,337,0.0,7.0,79,0.00,,,0.00,Rainwise IP-100,2013-01-25 21:26:00,
2013-01-25 16:31:00,15.0,11.0,30.28,NW,315,2.0,6.0,79,0.00,,,0.00,Rainwise IP-100,2013-01-25 21:31:00,
2013-01-25 16:36:00,15.0,11.0,30.28,WNW,292,1.0,9.0,79,0.00,,,0.00,Rainwise IP-100,2013-01-25 21:36:00,
2013-01-25 16:41:00,14.0,8.0,30.28,WNW,292,0.0,6.0,79,0.00,,,0.00,Rainwise IP-100,2013-01-25 21:41:00,
2013-01-25 16:46:00,14.0,8.0,30.28,WNW,292,1.0,7.0,79,0.00,,,0.00,Rainwise IP-100,2013-01-25 21:46:00,
2013-01-25 16:52:00,14.0,8.0,30.28,WNW,292,0.0,2.0,79,0.00,,,0.00,Rainwise IP-100,2013-01-25 21:52:00,
2013-01-25 16:57:00,14.0,8.0,30.28,NNW,337,0.0,3.0,79,0.00,,,0.00,Rainwise IP-100,2013-01-25 21:57:00,
2013-01-25 17:02:00,14.0,8.0,30.28,WNW,292,0.0,3.0,79,0.00,,,0.00,Rainwise IP-100,2013-01-25 22:02:00,
2013-01-25 17:07:00,13.0,8.0,30.28,WNW,292,0.0,4.0,80,0.00,,,0.00,Rainwise IP-100,2013-01-25 22:07:00,
2013-01-25 17:12:00,13.0,8.0,30.28,WNW,292,0.0,2.0,80,0.00,,,0.00,Rainwise IP-100,2013-01-25 22:12:00,
2013-01-25 17:17:00,13.0,8.0,30.28,WSW,247,1.0,4.0,80,0.00,,,0.00,Rainwise IP-100,2013-01-25 22:17:00,
2013-01-25 17:22:00,13.0,8.0,30.28,WSW,247,0.0,5.0,80,0.00,,,0.00,Rainwise IP-100,2013-01-25 22:22:00,
2013-01-25 17:30:00,12.0,8.0,30.28,WNW,292,0.0,4.0,80,0.00,,,0.00,Rainwise IP-100,2013-01-25 22:30:00,
2013-01-25 17:35:00,12.0,8.0,30.28,WNW,292,0.0,7.0,80,0.00,,,0.00,Rainwise IP-100,2013-01-25 22:35:00,
2013-01-25 17:40:00,12.0,8.0,30.28,WNW,292,6.0,6.0,80,0.00,,,0.00,Rainwise IP-100,2013-01-25 22:40:00,
2013-01-25 17:45:00,12.0,8.0,30.28,WNW,292,0.0,9.0,80,0.00,,,0.00,Rainwise IP-100,2013-01-25 22:45:00,
2013-01-25 17:50:00,12.0,8.0,30.28,NNW,337,0.0,4.0,80,0.00,,,0.00,Rainwise IP-100,2013-01-25 22:50:00,
2013-01-25 17:55:00,12.0,8.0,30.28,WNW,292,0.0,1.0,80,0.00,,,0.00,Rainwise IP-100,2013-01-25 22:55:00,
2013-01-25 18:00:00,12.0,8.0,30.28,WNW,292,0.0,1.0,80,0.00,,,0.00,Rainwise IP-100,2013-01-25 23:00:00,
2013-01-25 18:05:00,12.0,8.0,30.28,WNW,292,0.0,0.0,80,0.00,,,0.00,Rainwise IP-100,2013-01-25 23:05:00,
2013-01-25 18:10:00,11.0,8.0,30.29,WNW,292,0.0,0.0,81,0.00,,,0.00,Rainwise IP-100,2013-01-25 23:10:00,
2013-01-25 18:15:00,11.0,8.0,30.28,WNW,292,0.0,0.0,81,0.00,,,0.00,Rainwise IP-100,2013-01-25 23:15:00,
2013-01-25 18:20:00,11.0,8.0,30.28,WNW,292,0.0,2.0,81,0.00,,,0.00,Rainwise IP-100,2013-01-25 23:20:00,
2013-01-25 18:25:00,11.0,8.0,30.28,WSW,247,0.0,4.0,81,0.00,,,0.00,Rainwise IP-100,2013-01-25 23:25:00,
2013-01-25 18:30:00,11.0,8.0,30.28,WNW,292,0.0,3.0,81,0.00,,,0.00,Rainwise IP-100,2013-01-25 23:30:00,
2013-01-25 18:35:00,11.0,8.0,30.28,West,270,0.0,5.0,81,0.00,,,0.00,Rainwise IP-100,2013-01-25 23:35:00,
2013-01-25 18:40:00,11.0,8.0,30.28,West,270,0.0,5.0,81,0.00,,,0.00,Rainwise IP-100,2013-01-25 23:40:00,
2013-01-25 18:45:00,11.0,8.0,30.28,WNW,292,0.0,3.0,81,0.00,,,0.00,Rainwise IP-100,2013-01-25 23:45:00,
2013-01-25 18:50:00,11.0,8.0,30.28,WNW,292,0.0,4.0,81,0.00,,,0.00,Rainwise IP-100,2013-01-25 23:50:00,
2013-01-25 18:55:00,11.0,8.0,30.28,WNW,292,0.0,2.0,81,0.00,,,0.00,Rainwise IP-100,2013-01-25 23:55:00,
2013-01-25 19:00:00,11.0,8.0,30.28,WNW,292,0.0,3.0,81,0.00,,,0.00,Rainwise IP-100,2013-01-26 00:00:00,
2013-01-25 19:05:00,11.0,8.0,30.29,WNW,292,0.0,2.0,81,0.00,,,0.00,Rainwise IP-100,2013-01-26 00:05:00,
2013-01-25 19:10:00,11.0,8.0,30.29,WNW,292,0.0,2.0,81,0.00,,,0.00,Rainwise IP-100,2013-01-26 00:10:00,
2013-01-25 19:15:00,11.0,8.0,30.29,WNW,292,0.0,2.0,81,0.00,,,0.00,Rainwise IP-100,2013-01-26 00:15:00,
2013-01-25 19:20:00,11.0,8.0,30.29,WNW,292,0.0,0.0,81,0.00,,,0.00,Rainwise IP-100,2013-01-26 00:20:00,
2013-01-25 19:25:00,11.0,8.0,30.29,WNW,292,0.0,2.0,81,0.00,,,0.00,Rainwise IP-100,2013-01-26 00:25:00,
2013-01-25 19:30:00,11.0,8.0,30.29,WNW,292,0.0,5.0,81,0.00,,,0.00,Rainwise IP-100,2013-01-26 00:30:00,
2013-01-25 19:35:00,11.0,8.0,30.29,WNW,292,0.0,2.0,81,0.00,,,0.00,Rainwise IP-100,2013-01-26 00:35:00,
2013-01-25 19:40:00,11.0,8.0,30.29,WNW,292,0.0,7.0,81,0.00,,,0.00,Rainwise IP-100,2013-01-26 00:40:00,
2013-01-25 19:45:00,11.0,8.0,30.29,West,270,0.0,1.0,81,0.00,,,0.00,Rainwise IP-100,2013-01-26 00:45:00,
2013-01-25 19:50:00,11.0,8.0,30.29,WNW,292,1.0,6.0,81,0.00,,,0.00,Rainwise IP-100,2013-01-26 00:50:00,
2013-01-25 19:55:00,12.0,8.0,30.29,WNW,292,0.0,9.0,80,0.00,,,0.00,Rainwise IP-100,2013-01-26 00:55:00,
2013-01-25 20:00:00,12.0,8.0,30.29,WNW,292,0.0,7.0,80,0.00,,,0.00,Rainwise IP-100,2013-01-26 01:00:00,
2013-01-25 20:05:00,12.0,8.0,30.29,WNW,292,0.0,7.0,80,0.00,,,0.00,Rainwise IP-100,2013-01-26 01:05:00,
2013-01-25 20:10:00,12.0,8.0,30.29,WNW,292,0.0,7.0,80,0.00,,,0.00,Rainwise IP-100,2013-01-26 01:10:00,
2013-01-25 20:15:00,12.0,8.0,30.28,NW,315,6.0,7.0,80,0.00,,,0.00,Rainwise IP-100,2013-01-26 01:15:00,
2013-01-25 20:20:00,12.0,8.0,30.28,WNW,292,1.0,8.0,80,0.00,,,0.00,Rainwise IP-100,2013-01-26 01:20:00,
2013-01-25 20:25:00,12.0,8.0,30.28,WNW,292,1.0,7.0,80,0.00,,,0.00,Rainwise IP-100,2013-01-26 01:25:00,
2013-01-25 20:31:00,12.0,8.0,30.27,NW,315,0.0,6.0,80,0.00,,,0.00,Rainwise IP-100,2013-01-26 01:31:00,
2013-01-25 20:36:00,12.0,8.0,30.27,NW,315,1.0,7.0,80,0.00,,,0.00,Rainwise IP-100,2013-01-26 01:36:00,
2013-01-25 20:41:00,12.0,8.0,30.28,WNW,292,3.0,9.0,80,0.00,,,0.00,Rainwise IP-100,2013-01-26 01:41:00,
2013-01-25 20:46:00,12.0,8.0,30.28,NW,315,0.0,8.0,80,0.00,,,0.00,Rainwise IP-100,2013-01-26 01:46:00,
2013-01-25 20:51:00,12.0,8.0,30.27,WNW,292,0.0,5.0,80,0.00,,,0.00,Rainwise IP-100,2013-01-26 01:51:00,
2013-01-25 20:57:00,11.0,8.0,30.28,WNW,292,0.0,6.0,81,0.00,,,0.00,Rainwise IP-100,2013-01-26 01:57:00,
2013-01-25 21:02:00,11.0,8.0,30.28,WNW,292,0.0,0.0,81,0.00,,,0.00,Rainwise IP-100,2013-01-26 02:02:00,
2013-01-25 21:07:00,11.0,8.0,30.27,WNW,292,0.0,0.0,81,0.00,,,0.00,Rainwise IP-100,2013-01-26 02:07:00,
2013-01-25 21:12:00,11.0,8.0,30.27,NW,315,0.0,2.0,81,0.00,,,0.00,Rainwise IP-100,2013-01-26 02:12:00,
2013-01-25 21:17:00,11.0,8.0,30.26,NNW,337,5.0,5.0,81,0.00,,,0.00,Rainwise IP-100,2013-01-26 02:17:00,
2013-01-25 21:22:00,11.0,8.0,30.26,NNW,337,0.0,6.0,81,0.00,,,0.00,Rainwise IP-100,2013-01-26 02:22:00,
2013-01-25 21:27:00,11.0,8.0,30.26,NW,315,3.0,4.0,81,0.00,,,0.00,Rainwise IP-100,2013-01-26 02:27:00,
2013-01-25 21:32:00,11.0,8.0,30.26,NW,315,0.0,3.0,81,0.00,,,0.00,Rainwise IP-100,2013-01-26 02:32:00,
2013-01-25 21:37:00,11.0,8.0,30.26,NW,315,0.0,6.0,81,0.00,,,0.00,Rainwise IP-100,2013-01-26 02:37:00,
2013-01-25 21:42:00,11.0,8.0,30.26,NNW,337,3.0,7.0,81,0.00,,,0.00,Rainwise IP-100,2013-01-26 02:42:00,
2013-01-25 21:47:00,11.0,8.0,30.26,NW,315,6.0,9.0,81,0.00,,,0.00,Rainwise IP-100,2013-01-26 02:47:00,
2013-01-25 21:52:00,11.0,8.0,30.26,NNW,337,5.0,7.0,81,0.00,,,0.00,Rainwise IP-100,2013-01-26 02:52:00,
2013-01-25 21:57:00,11.0,8.0,30.26,NNW,337,3.0,9.0,81,0.00,,,0.00,Rainwise IP-100,2013-01-26 02:57:00,
2013-01-25 22:02:00,11.0,8.0,30.26,WNW,292,2.0,6.0,81,0.00,,,0.00,Rainwise IP-100,2013-01-26 03:02:00,
2013-01-25 22:07:00,11.0,8.0,30.26,NW,315,0.0,5.0,81,0.00,,,0.00,Rainwise IP-100,2013-01-26 03:07:00,
2013-01-25 22:12:00,11.0,8.0,30.25,WNW,292,3.0,7.0,81,0.00,,,0.00,Rainwise IP-100,2013-01-26 03:12:00,
2013-01-25 22:17:00,11.0,8.0,30.26,NW,315,0.0,6.0,81,0.00,,,0.00,Rainwise IP-100,2013-01-26 03:17:00,
2013-01-25 22:22:00,11.0,8.0,30.26,NNW,337,3.0,5.0,81,0.00,,,0.00,Rainwise IP-100,2013-01-26 03:22:00,
2013-01-25 22:27:00,10.0,8.0,30.27,NNW,337,0.0,4.0,81,0.00,,,0.00,Rainwise IP-100,2013-01-26 03:27:00,
2013-01-25 22:33:00,10.0,8.0,30.27,NNW,337,1.0,3.0,81,0.00,,,0.00,Rainwise IP-100,2013-01-26 03:33:00,
2013-01-25 22:38:00,10.0,8.0,30.27,NW,315,0.0,4.0,81,0.00,,,0.00,Rainwise IP-100,2013-01-26 03:38:00,
2013-01-25 22:43:00,10.0,8.0,30.27,NW,315,0.0,4.0,81,0.00,,,0.00,Rainwise IP-100,2013-01-26 03:43:00,
2013-01-25 22:48:00,10.0,8.0,30.27,WNW,292,0.0,8.0,81,0.00,,,0.00,Rainwise IP-100,2013-01-26 03:48:00,
2013-01-25 22:53:00,10.0,8.0,30.27,NW,315,3.0,6.0,81,0.00,,,0.00,Rainwise IP-100,2013-01-26 03:53:00,
2013-01-25 22:59:00,10.0,8.0,30.27,NNW,337,1.0,6.0,81,0.00,,,0.00,Rainwise IP-100,2013-01-26 03:59:00,
2013-01-25 23:04:00,10.0,8.0,30.27,WNW,292,3.0,5.0,81,0.00,,,0.00,Rainwise IP-100,2013-01-26 04:04:00,
2013-01-25 23:09:00,10.0,8.0,30.27,WNW,292,0.0,5.0,81,0.00,,,0.00,Rainwise IP-100,2013-01-26 04:09:00,
2013-01-25 23:14:00,10.0,8.0,30.27,WNW,292,0.0,2.0,81,0.00,,,0.00,Rainwise IP-100,2013-01-26 04:14:00,
2013-01-25 23:19:00,10.0,8.0,30.27,NNW,337,6.0,8.0,81,0.00,,,0.00,Rainwise IP-100,2013-01-26 04:19:00,
2013-01-25 23:24:00,10.0,8.0,30.27,NNW,337,5.0,12.0,81,0.00,,,0.00,Rainwise IP-100,2013-01-26 04:24:00,
2013-01-25 23:29:00,10.0,8.0,30.27,NW,315,9.0,10.0,81,0.00,,,0.00,Rainwise IP-100,2013-01-26 04:29:00,
2013-01-25 23:34:00,10.0,8.0,30.27,NW,315,7.0,10.0,81,0.00,,,0.00,Rainwise IP-100,2013-01-26 04:34:00,
2013-01-25 23:39:00,10.0,8.0,30.27,NNW,337,5.0,9.0,81,0.00,,,0.00,Rainwise IP-100,2013-01-26 04:39:00,
2013-01-25 23:44:00,10.0,8.0,30.26,NNW,337,7.0,10.0,81,0.00,,,0.00,Rainwise IP-100,2013-01-26 04:44:00,
2013-01-25 23:49:00,10.0,8.0,30.26,NNW,337,11.0,11.0,81,0.00,,,0.00,Rainwise IP-100,2013-01-26 04:49:00,
2013-01-25 23:54:00,9.0,8.0,30.26,NNW,337,9.0,12.0,82,0.00,,,0.00,Rainwise IP-100,2013-01-26 04:54:00,
2013-01-25 23:59:00,9.0,8.0,30.26,NNW,337,4.0,13.0,82,0.00,,,0.00,Rainwise IP-100,2013-01-26 04:59:00,